Location: Angwan Shehu
(11.2514°N, 7.4613°E)
Time: 19:57:49
(UTC+00:00)

Cosmos 1697 Rocket - Pass Details

Date: 14 November 2019
Orbit: 833 x 842 km, 71.0° (Epoch: 10 December)

Event Time Altitude Azimuth Distance (km) Brightness Sun altitude
Rises 17:37:08 0° 211° (SSW) 3,387 6.7 -8.8°
Reaches altitude 10° 17:39:43 10° 218° (SW) 2,453 6.0 -9.4°
Maximum altitude 17:44:57 40° 287° (WNW) 1,214 4.1 -10.6°
Drops below altitude 10° 17:50:13 10° 356° (N) 2,452 5.0 -11.9°
Sets 17:52:48 0° 4° (N) 3,385 5.6 -12.5°
